Voltar ao catálogo

OPS 4682 DEB

AtivoPO
NORAD 38408·DEBRIS·🇺🇸 United States

Lançado Apr 3, 1965 de Vandenberg Space Force Base

Loading…

Próximas Passagens (próximas 24 horas)

TLE

AtualizadoSource: Space-Track

Época: Sep 14, 2026, 13:52 UTC

1 38408U 65027DM  26257.57789927 -.00000028  00000-0 -11164-3 0  9997
2 38408  90.2946  17.8188 0041596 288.9557  70.7061 13.02208934616845

Acompanhe OPS 4682 DEB em tempo real com AllMySat

Download on the App Store